Regional Weather Roundup
Issued by NWS

Home | Current Version | Previous Version | Text Only | Print | Product List | Glossary On
Versions: 1 2 3 4 5 6 7 8 9 10 11 12 13 14 15 16 17 18 19 20 21 22 23 24 25 26 27 28 29 30 31 32 33 34 35 36 37 38 39 40 41 42 43 44 45 46 47 48 49 50
000
ASUS43 KLMK 031002
RWRKY
KENTUCKY REGIONAL WEATHER ROUNDUP
NATIONAL WEATHER SERVICE LOUISVILLE KY
600 AM EDT MON AUG 03 2015

NOTE "FAIR" INDICATES FEW OR NO CLOUDS BELOW 12,000 FEET
WITH NO SIGNIFICANT WEATHER AND/OR OBSTRUCTIONS TO VISIBILITY.

KYZ001>023-026-027-061>063-070>075-031100-
WESTERN AND SOUTH CENTRAL KENTUCKY

CITY           SKY/WX    TMP DP  RH WIND       PRES   REMARKS
PADUCAH        CLEAR     74  70  87 SW6       29.87S
HENDERSON      CLEAR     72  64  78 SW7       29.84F
OWENSBORO      CLEAR     71  66  84 S6        29.87S
HOPKINSVILLE   CLEAR     71  65  81 S1        29.90S
BOWLING GREEN  PTCLDY    67  62  84 CALM      29.91S
GLASGOW        NOT AVBL
$$

KYZ024-025-028>034-038-045-046-053-031100-
NORTH CENTRAL KENTUCKY

CITY           SKY/WX    TMP DP  RH WIND       PRES   REMARKS
LOUISVILLE/SDF PTCLDY    73  62  68 S5        29.87S
LOUISVILLE/LOU PTCLDY    72  62  71 CALM      29.88S
FORT KNOX      NOT AVBL
$$

KYZ035>037-039>044-047>052-055>060-089>105-031100-
NORTHEAST KENTUCKY

CITY           SKY/WX    TMP DP  RH WIND       PRES   REMARKS
LEXINGTON      CLEAR     65  61  87 S7        29.91S
COVINGTON      TSTM      69  58  67 NE25G49   29.96R
FRANKFORT      CLEAR     65  60  84 SW3       29.89S
$$

KYZ054-064>069-076>088-106>120-031100-
SOUTHEAST KENTUCKY

CITY           SKY/WX    TMP DP  RH WIND       PRES   REMARKS
JACKSON        CLEAR     63  60  90 CALM      29.94R
LONDON         CLEAR     63  59  87 CALM      29.95R
SOMERSET       NOT AVBL
MIDDLESBORO    CLOUDY    59  59 100 CALM      29.97R FOG
MONTICELLO     SUNNY     59  59 100 CALM      29.97R
$$




USA.gov is the U.S. government's official web portal to all federal, state and local government web resources and services.